Date,TemperatureHighF,TemperatureAvgF,TemperatureLowF,DewpointHighF,DewpointAvgF,DewpointLowF,HumidityHigh,HumidityAvg,HumidityLow,PressureMaxIn,PressureMinIn,WindSpeedMaxMPH,WindSpeedAvgMPH,GustSpeedMaxMPH,PrecipitationSumIn
2013-7-1,91,80,70,48,42,36,38,26,15,30.22,30.14,8,3,14,0.00
2013-7-2,90,78,70,53,44,35,43,30,18,30.22,30.13,10,3,22,0.00
2013-7-3,87,76,66,55,46,39,49,36,19,30.16,30.02,11,4,18,0.00
2013-7-4,83,74,64,57,48,41,68,41,23,30.06,29.89,23,7,33,0.00
2013-7-5,80,68,58,54,47,40,71,48,28,29.96,29.86,18,8,27,0.01
2013-7-6,80,65,57,54,48,38,72,55,28,29.99,29.90,19,12,27,0.07
2013-7-7,83,68,59,53,46,40,70,48,26,30.02,29.93,19,12,29,0.15
2013-7-8,82,68,60,53,46,34,66,49,19,30.12,30.00,17,11,26,0.07
2013-7-9,83,76,64,42,34,28,34,22,15,30.23,30.12,10,4,16,0.00
2013-7-10,90,78,70,42,27,-100,31,17,11,30.16,29.99,10,5,17,0.00
2013-7-11,78,68,59,47,34,16,64,35,10,30.05,30.00,12,6,20,0.00
2013-7-12,77,66,58,48,44,37,62,47,24,30.05,29.98,12,8,17,0.00
2013-7-13,79,68,62,52,44,36,64,42,21,30.13,30.01,16,9,25,0.02
2013-7-14,82,68,58,51,44,37,64,43,24,30.19,30.09,19,8,28,0.02
2013-7-15,86,73,63,54,42,37,64,35,19,30.12,29.98,13,5,21,0.10
2013-7-16,84,74,67,56,49,39,67,43,24,30.11,29.99,17,6,25,0.01
2013-7-17,85,72,63,55,51,44,66,49,31,30.18,30.10,13,6,22,0.01
2013-7-18,86,73,62,52,44,23,67,40,14,30.22,30.12,13,5,21,0.00
2013-7-19,88,82,73,36,28,21,20,14,10,30.16,30.03,11,4,19,0.00
2013-7-20,88,78,63,40,28,20,30,17,10,30.08,29.93,18,6,24,0.00
2013-7-21,85,77,65,31,22,13,21,14,7,30.01,29.94,15,8,27,0.00
2013-7-22,87,78,67,22,17,13,14,10,7,30.07,29.98,20,8,29,0.00
2013-7-23,85,75,64,28,20,7,19,13,7,30.16,30.07,11,3,16,0.00
2013-7-24,84,78,73,29,25,13,17,15,9,30.11,30.06,11,5,17,0.00
2013-7-25,85,74,65,40,32,27,31,22,14,30.17,30.07,15,5,20,0.00
2013-7-26,88,77,65,34,30,27,27,18,12,30.25,30.11,8,3,16,0.00
2013-7-27,75,67,61,55,43,32,77,44,21,30.16,30.00,13,6,19,0.09
2013-7-28,74,65,58,51,47,37,72,53,26,30.01,29.93,18,10,26,0.09
2013-7-29,77,65,59,50,42,34,60,46,27,30.07,29.95,20,12,29,0.00
2013-7-30,82,71,62,48,40,31,54,35,16,30.21,30.07,15,8,25,0.00
2013-7-31,86,74,62,45,36,28,44,26,13,30.22,30.04,12,5,25,0.00